Hourly Weather Roundup
Issued by NWS Central Illinois

Home | Current Version | Previous Version | Text Only | Print | Product List | Glossary On
Versions: 1 2 3 4 5 6 7 8 9 10 11 12 13 14 15 16 17 18 19 20 21 22 23 24 25 26 27 28 29 30 31 32 33 34 35 36 37 38 39 40 41 42 43 44 45 46 47 48 49 50
000
NZUS43 KILX 260410
HWRILX

AREA WEATHER ROUNDUP
NATIONAL WEATHER SERVICE, LINCOLN IL
1000 PM CST TUE NOV 25 2014


CITY           SKY/WX    TMP DP  RH WIND       PRES   REMARKS
BLOOMINGTON    CLEAR     22  20  92 SE7       30.19S WCI  14
CHAMPAIGN      CLEAR     23  20  88 E6        30.20S WCI  16
DECATUR        CLEAR     25  21  85 SE5       30.20S WCI  19
FLORA          CLEAR     25  25  98 CALM      30.22S
GALESBURG      CLEAR     20  19  94 CALM      30.16R
JACKSONVILLE   CLEAR     28  24  83 SE6       30.16F WCI  22
LACON          CLEAR     21  17  86 SE7       30.18S WCI  12
LAWRENCEVILLE  MOCLDY    29  23  78 NE3       30.22F
LITCHFIELD     CLEAR     27  23  85 SE6       30.18S WCI  20
$$


CITY           SKY/WX    TMP DP  RH WIND       PRES   REMARKS
LINCOLN        CLEAR     24  22  91 SE3       30.20F
MACOMB         CLEAR     24  22  93 SE3       30.18R
MATTOON        CLEAR     27  22  81 CALM      30.19F
MT CARMEL AP   MOCLDY    32  25  74 N3        30.22S
OLNEY-NOBLE AP CLEAR     27  23  86 CALM      30.23R
PARIS          CLOUDY    28  24  83 CALM      30.23R
PEORIA         CLEAR     24  18  77 SE5       30.18S WCI  18
PONTIAC        CLEAR     23  20  90 E6        30.20S WCI  15
RANTOUL        CLEAR     26  22  84 SE6       30.19F WCI  19
ROBINSON       CLOUDY    29  24  81 NE3       30.23S
SPRINGFIELD    CLEAR     25  22  88 SE6       30.18F WCI  18
TAYLORVILLE    CLEAR     27  25  93 SE6       30.19F WCI  20
$$

...REGIONAL REPORTS...


CITY           SKY/WX    TMP DP  RH WIND       PRES   REMARKS
CHICAGO O`HARE FAIR      19  15  84 S5        30.19R WCI  12
KANKAKEE       CLOUDY   N/A N/A N/A S5        30.22R
MOLINE         CLEAR     16  12  84 CALM      30.17R
MOUNT VERNON   CLEAR     25  18  74 NE3       30.21S
PITTSFIELD     CLEAR     29  25  84 S3        30.17R
QUINCY         CLEAR     26  19  74 S3        30.15R
ROCKFORD       CLEAR     14  10  84 SE5       30.18F WCI   6
$$


CITY           SKY/WX    TMP DP  RH WIND       PRES   REMARKS
BURLINGTON     CLEAR     23  19  85 SE6       30.15R WCI  16
CEDAR RAPIDS   CLEAR     18  16  92 SE6       30.10S WCI  10
DES MOINES     CLOUDY    30  14  51 S10       30.02F WCI  21
KIRKSVILLE     PTCLDY    25  19  78 SE8       30.10F WCI  16
OTTUMWA        CLEAR     25  18  74 SE9       30.08F WCI  15
ST LOUIS       PTCLDY    30  22  72 SE5       30.18F WCI  25
$$


CITY           SKY/WX    TMP DP  RH WIND       PRES   REMARKS
TERRE HAUTE    CLOUDY    29  22  75 N3        30.22S
EVANSVILLE     CLEAR     30  25  81 N3        30.21F
INDIANAPOLIS   CLOUDY    27  21  78 NW6       30.19F WCI  20
LAFAYETTE      CLOUDY    25  20  81 SW5       30.22S WCI  19
MADISON        CLEAR     17  13  84 S9        30.13R WCI   6
MILWAUKEE      MOCLDY    19  14  81 SW5       30.17S WCI  12
$$




USA.gov is the U.S. government's official web portal to all federal, state and local government web resources and services.